Santiago, Chile

1:39 PM -04 on July 21, 2018 (GMT -0400)
Arturo Merino Benitez International

Weather History for SCEL - March, 2018

Change the Weather History Date:

Friday, March 9, 2018

  Actual Average Record
Temperature  
Mean Temperature 68 °F -  
Max Temperature 84 °F 76 °F 92 °F (2015)
Min Temperature 53 °F 47 °F 48 °F (1999)
Cooling Degree Days 4    
Growing Degree Days 18 (Base 50)    
Moisture  
Dew Point 52 °F    
Average Humidity 62    
Maximum Humidity 88    
Minimum Humidity 23    
Precipitation  
Precipitation 0.00 in - - ()
Sea Level Pressure  
Sea Level Pressure 29.93 in    
Wind  
Wind Speed 6 mph ()    
Max Wind Speed 18 mph    
Max Gust Speed -    
Visibility 4.8 miles    
Events      
Averages and records for this station are not official NWS values.
T = Trace of Precipitation, MM = Missing Value Source: Averaged Metar Reports

Daily Weather History Graph

Daily Weather History Graph

Search for Another Location

Airport or City:

Astronomy

Mar. 09, 2018 Rise Set
Actual Time 7:37 AM -03 8:08 PM -03
Civil Twilight 7:12 AM -03 8:33 PM -03
Nautical Twilight 6:43 AM -03 9:02 PM -03
Astronomical Twilight 6:13 AM -03 9:32 PM -03
Moon 12:43 AM -03 (3/9) 2:52 PM -03 (3/9)
Length of Visible Light 13h 20m
Length of Day
12h 30m
Waning Gibbous, 49% of the Moon is Illuminated
Mar 9
Waning Gibbous
Mar 17
New
Mar 24
First Quarter
Mar 31
Full
Apr 8
Last Quarter

Hourly Weather History & Observations

Time (-03) Temp. Dew Point Humidity Pressure Visibility Wind Dir Wind Speed Gust Speed Precip Events Conditions
12:00 AM 62.6 °F 53.6 °F 72% 29.98 in - South 5.8 mph - N/A   Clear
1:00 AM 60.8 °F 53.6 °F 77% 29.98 in - SSE 6.9 mph - N/A   Clear
2:00 AM 60.8 °F 53.6 °F 77% 29.95 in - South 3.5 mph - N/A   Clear
3:00 AM 58 °F 52 °F 73% 29.93 in 5 mi Calm Calm - -   Haze
3:00 AM 59.0 °F 51.8 °F 77% 29.92 in 5.0 mi Variable 1.2 mph - N/A   Unknown
4:00 AM 57.2 °F 51.8 °F 82% 29.92 in - South 9.2 mph - N/A   Clear
5:00 AM 57.2 °F 51.8 °F 82% 29.95 in - SE 6.9 mph - N/A   Clear
6:00 AM 57.2 °F 51.8 °F 82% 29.95 in - SSE 6.9 mph - N/A   Clear
7:00 AM 55.4 °F 51.8 °F 88% 29.95 in - South 4.6 mph - N/A   Clear
8:00 AM 53.6 °F 50.0 °F 88% 29.95 in 4.3 mi Variable 1.2 mph - N/A   Unknown
9:00 AM 56 °F 51 °F 79% 29.98 in 4 mi Calm Calm - -   Haze
9:00 AM 55.4 °F 51.8 °F 88% 29.98 in 4.3 mi Variable 2.3 mph - N/A   Unknown
10:00 AM 60.8 °F 53.6 °F 77% 29.95 in 4.3 mi Variable 2.3 mph - N/A   Unknown
11:00 AM 66.2 °F 53.6 °F 64% 29.95 in 4.3 mi Variable 1.2 mph - N/A   Unknown
12:00 PM 71.6 °F 53.6 °F 53% 29.95 in 5.0 mi Variable 2.3 mph - N/A   Unknown
1:00 PM 78.8 °F 53.6 °F 42% 29.92 in 5.0 mi Variable 4.6 mph - N/A   Unknown
2:00 PM 80.6 °F 51.8 °F 37% 29.92 in - South 8.1 mph - N/A   Clear
3:00 PM 82 °F 51 °F 23% 29.84 in 6 mi SSE 8.1 mph - -   Partly Cloudy
3:00 PM 82.4 °F 50.0 °F 32% 29.89 in - SSE 8.1 mph - N/A   Clear
4:00 PM 84.2 °F 51.8 °F 33% 29.89 in - SSW 11.5 mph - N/A   Clear
5:00 PM 80.6 °F 51.8 °F 37% 29.89 in - East 17.3 mph - N/A   Clear
6:00 PM 77.0 °F 51.8 °F 41% 29.89 in - SW 18.4 mph - N/A   Clear
7:00 PM 75.2 °F 51.8 °F 44% 29.89 in - SW 15.0 mph - N/A   Clear
8:00 PM 71.6 °F 51.8 °F 50% 29.92 in - SSW 12.7 mph - N/A   Clear
9:00 PM 67 °F 52 °F 49% 29.92 in 6 mi SSE 11.5 mph - -   Partly Cloudy
9:00 PM 68.0 °F 51.8 °F 56% 29.95 in - SSE 11.5 mph - N/A   Clear
10:00 PM 64.4 °F 51.8 °F 64% 29.98 in - SSE 12.7 mph - N/A   Clear
11:00 PM 62.6 °F 51.8 °F 68% 29.98 in - South 11.5 mph - N/A   Clear